| time (UTC) | temp C | wind direction | speed KPH | gust KPH | rain 1hr cm | rain 24hr cm | rain mn cm | humidity % | barometer mb |
| 20260905091538 | 26 | 0 | 0.0 | 0.0 | 0.00 | 0.00 | 0.00 | 74 | 1013.4 |
| 20260905084557 | 27 | 0 | 0.0 | 0.0 | 0.00 | 0.00 | 0.00 | 71 | 1013.2 |
| 20260905083035 | 27 | 0 | 0.0 | 0.0 | 0.00 | 0.00 | 0.00 | 71 | 1013.2 |
| 20260905074534 | 27 | 0 | 0.0 | 0.0 | 0.00 | 0.00 | 0.00 | 69 | 1013.1 |
| 20260905073035 | 28 | 0 | 0.0 | 4.8 | 0.00 | 0.00 | 0.00 | 68 | 1013.4 |
| 20260905053036 | 29 | 5 | 0.0 | 6.4 | 0.00 | 0.00 | 0.00 | 63 | 1013.4 |
| 20260905043034 | 30 | 355 | 1.6 | 12.9 | 0.00 | 0.00 | 0.00 | 62 | 1013.4 |
| 20260905034544 | 31 | 281 | 1.6 | 6.4 | 0.00 | 0.00 | 0.00 | 59 | 1013.4 |
| 20260905030037 | 31 | 341 | 3.2 | 6.4 | 0.00 | 0.00 | 0.00 | 58 | 1013.3 |
| 20260905024546 | 31 | 273 | 3.2 | 8.0 | 0.00 | 0.00 | 0.00 | 57 | 1013.1 |
| 20260905020044 | 32 | 299 | 4.8 | 9.7 | 0.00 | 0.00 | 0.00 | 55 | 1012.3 |
| 20260905000036 | 35 | 291 | 6.4 | 14.5 | 0.00 | 0.00 | 0.00 | 43 | 1011.4 |
| 20260904214542 | 37 | 273 | 8.0 | 19.3 | 0.00 | 0.00 | 0.00 | 45 | 1011.7 |
| 20260904201535 | 36 | 13 | 8.0 | 19.3 | 0.00 | 0.00 | 0.00 | 45 | 1012.7 |
| 20260904193044 | 35 | 329 | 8.0 | 22.5 | 0.00 | 0.00 | 0.00 | 47 | 1013.3 |
| 20260904163034 | 31 | 309 | 6.4 | 17.7 | 0.00 | 0.00 | 0.00 | 59 | 1015.4 |
| 20260904144537 | 28 | 350 | 6.4 | 16.1 | 0.00 | 0.00 | 0.00 | 77 | 1015.0 |
| 20260904124537 | 25 | 269 | 4.8 | 11.3 | 0.00 | 0.03 | 0.00 | 86 | 1014.4 |
| 20260904114542 | 25 | 281 | 6.4 | 11.3 | 0.00 | 0.03 | 0.00 | 85 | 1014.1 |
| 20260904100033 | 25 | 261 | 3.2 | 9.7 | 0.00 | 0.03 | 0.00 | 81 | 1013.5 |